Location: Oak Glen
(34.0495°N, 116.9470°E)
Time: 10:21:06
(UTC-07:00)

OTV 5 (USA 277) - Pass Details

Date: 09 October 2017
Orbit: 404 x 417 km, 43.0° (Epoch: 07 September)

Event Time Altitude Azimuth Distance (km) Brightness Sun altitude
Rises 05:12:34 0° 268° (W) 2,344 ? -31.0°
Reaches altitude 10° 05:14:52 10° 280° (W) 1,482 ? -31.4°
Enters shadow 05:15:09 12° 282° (WNW) 1,382 ? -31.5°
